This is the latest recevied weather packets stored in our database for station/object F6BIJ-13. If no packets are shown the sender has not sent any weather packets the latest 10 day(s).
| Time | Temp. | Humidity | Pressure | Rain* | Wind** | Luminosity | Snow |
|---|---|---|---|---|---|---|---|
| 1777550437 | 21.11° C | 48% | 1019.3 hPa | 0 mm | - | - | - |
| 1777550077 | 22.22° C | 51% | 1019.4 hPa | 0 mm | - | - | - |
| 1777549717 | 21.11° C | 51% | 1019.4 hPa | 0 mm | - | - | - |
| 1777549357 | 21.11° C | 54% | 1019.5 hPa | 0 mm | - | - | - |
| 1777548997 | 21.67° C | 51% | 1019.5 hPa | 0 mm | - | - | - |
| 1777548637 | 21.11° C | 53% | 1019.6 hPa | 0 mm | - | - | - |
| 1777548278 | 21.67° C | 49% | 1019.6 hPa | 0 mm | - | - | - |
| 1777547917 | 21.11° C | 54% | 1019.6 hPa | 0 mm | - | - | - |
| 1777547557 | 20° C | 50% | 1019.7 hPa | 0 mm | - | - | - |
| 1777547197 | 20.56° C | 53% | 1019.7 hPa | 0 mm | - | - | - |
| 1777546837 | 20.56° C | 52% | 1019.7 hPa | 0 mm | - | - | - |
| 1777546478 | 20.56° C | 52% | 1019.8 hPa | 0 mm | - | - | - |
| 1777546117 | 19.44° C | 56% | 1019.8 hPa | 0 mm | - | - | - |
| 1777545757 | 20.56° C | 53% | 1019.8 hPa | 0 mm | - | - | - |
| 1777545399 | 20° C | 50% | 1019.9 hPa | 0 mm | - | - | - |
| 1777545038 | 19.44° C | 52% | 1019.9 hPa | 0 mm | - | - | - |
| 1777544677 | 20° C | 51% | 1020 hPa | 0 mm | - | - | - |
| 1777544317 | 18.89° C | 53% | 1020 hPa | 0 mm | - | - | - |
| 1777543957 | 19.44° C | 53% | 1020 hPa | 0 mm | - | - | - |
| 1777543597 | 19.44° C | 53% | 1020 hPa | 0 mm | - | - | - |
| 1777543236 | 19.44° C | 56% | 1020 hPa | 0 mm | - | - | - |
| 1777542937 | 18.33° C | 57% | 1020 hPa | 0 mm | - | - | - |
| 1777542517 | 17.78° C | 52% | 1020.1 hPa | 0 mm | - | - | - |
| 1777542158 | 18.33° C | 52% | 1020.1 hPa | 0 mm | - | - | - |
| 1777542157 | 18.33° C | 52% | 1020.1 hPa | 0 mm | - | - | - |
* Rain latest 24 hours (hover to see other rain measurements)
** Current wind speed in m/s (hover to see current wind gust speed)